Location: Port-Aux-Quilles Astronomical Observatory
(47.9769°N, 69.9642°W)
Time: 14:46:35
(UTC-04:00)

ISS - Visible Passes

Search period start: 28 September 2020 00:00
Search period end: 08 October 2020 00:00
Orbit: 419 x 421 km, 51.6° (Epoch: 29 September)

Date Brightness Start Highest point End Pass type
(mag) Time Alt. Az. Time Alt. Az. Time Alt. Az.
28 Sep -3.3 20:28:03 10° WNW 20:31:01 57° NNW 20:31:01 57° NNW visible
29 Sep -3.3 19:40:47 10° WNW 19:44:06 52° NNE 19:45:32 29° ENE visible
29 Sep -0.8 21:17:41 10° WNW 21:18:30 16° WNW 21:18:30 16° WNW visible
30 Sep -3.1 18:53:28 10° WNW 18:56:45 45° N 19:00:01 10° E visible
30 Sep -3.0 20:30:21 10° WNW 20:33:02 51° W 20:33:02 51° W visible
01 Oct -3.8 19:43:03 10° WNW 19:46:26 85° NNE 19:47:36 38° ESE visible
01 Oct -0.4 21:20:20 10° W 21:20:34 11° W 21:20:34 11° W visible
02 Oct -3.6 18:55:45 10° WNW 18:59:07 65° NNE 19:02:12 12° E visible
02 Oct -2.0 20:32:46 10° W 20:35:11 29° WSW 20:35:11 29° WSW visible
03 Oct -3.0 19:45:20 10° WNW 19:48:35 46° SSW 19:49:51 30° SSE visible
04 Oct -3.5 18:57:58 10° WNW 19:01:20 69° SSW 19:04:35 11° SE visible
04 Oct -1.0 20:35:52 10° WSW 20:37:35 14° SW 20:37:35 14° SW visible
05 Oct -1.5 19:47:55 10° W 19:50:30 21° SW 19:52:25 13° S visible
06 Oct -2.1 19:00:18 10° W 19:03:19 31° SW 19:06:19 10° SSE visible
